Location: Bakhuizen
(52.8696°N, 5.4575°E)
Time: 21:11:46
(UTC+00:00)

USA 307 - Pass Details

Date: 11 May 2021
Orbit: 566 x 577 km, 54.0° (Epoch: 10 May)

Event Time Altitude Azimuth Distance (km) Brightness Sun altitude
Rises 21:06:47 0° 289° (WNW) 2,778 7.4 -12.2°
Reaches altitude 10° 21:09:07 10° 283° (WNW) 1,879 6.3 -12.4°
Maximum altitude 21:13:09 42° 212° (SSW) 830 3.5 -12.7°
Enters shadow 21:15:37 21° 152° (SSE) 1,329 4.1 -12.9°
